Year,Month,Day,Hour,Minute,Value (Times are PST for windgust in km/hr)
2015,11,17,00,00,16.10
2015,11,17,00,01,17.70
2015,11,17,00,02,17.70
2015,11,17,00,03,17.70
2015,11,17,00,04,9.60
2015,11,17,00,05,8.10
2015,11,17,00,06,11.30
2015,11,17,00,07,9.60
2015,11,17,00,08,11.30
2015,11,17,00,09,16.10
2015,11,17,00,10,11.30
2015,11,17,00,11,14.50
2015,11,17,00,12,17.70
2015,11,17,00,13,14.50
2015,11,17,00,14,11.30
2015,11,17,00,15,12.90
2015,11,17,00,16,16.10
2015,11,17,00,17,11.30
2015,11,17,00,18,17.70
2015,11,17,00,19,17.70
2015,11,17,00,20,16.10
2015,11,17,00,21,17.70
2015,11,17,00,22,17.70
2015,11,17,00,23,19.30
2015,11,17,00,24,22.50
2015,11,17,00,25,16.10
2015,11,17,00,26,19.30
2015,11,17,00,27,19.30
2015,11,17,00,28,17.70
2015,11,17,00,29,20.90
2015,11,17,00,30,17.70
2015,11,17,00,31,20.90
2015,11,17,00,32,16.10
2015,11,17,00,33,20.90
2015,11,17,00,34,20.90
2015,11,17,00,35,19.30
2015,11,17,00,36,17.70
2015,11,17,00,37,11.30
2015,11,17,00,38,11.30
2015,11,17,00,39,16.10
2015,11,17,00,40,16.10
2015,11,17,00,41,14.50
2015,11,17,00,42,14.50
2015,11,17,00,43,11.30
2015,11,17,00,44,17.70
2015,11,17,00,45,24.20
2015,11,17,00,46,20.90
2015,11,17,00,47,20.90
2015,11,17,00,48,17.70
2015,11,17,00,49,14.50
2015,11,17,00,50,17.70
2015,11,17,00,51,16.10
2015,11,17,00,52,19.30
2015,11,17,00,53,22.50
2015,11,17,00,54,20.90
2015,11,17,00,55,14.50
2015,11,17,00,56,27.40
2015,11,17,00,57,29.00
2015,11,17,00,58,25.70
2015,11,17,00,59,17.70
2015,11,17,01,00,19.30
2015,11,17,01,01,25.70
2015,11,17,01,02,27.40
2015,11,17,01,03,20.90
2015,11,17,01,04,17.70
2015,11,17,01,05,16.10
2015,11,17,01,06,14.50
2015,11,17,01,07,11.30
2015,11,17,01,08,8.10
2015,11,17,01,09,11.30
2015,11,17,01,10,12.90
2015,11,17,01,11,14.50
2015,11,17,01,12,8.10
2015,11,17,01,13,11.30
2015,11,17,01,14,11.30
2015,11,17,01,15,16.10
2015,11,17,01,16,20.90
2015,11,17,01,17,16.10
2015,11,17,01,18,19.30
2015,11,17,01,19,12.90
2015,11,17,01,20,9.60
2015,11,17,01,21,9.60
2015,11,17,01,22,6.40
2015,11,17,01,23,9.60
2015,11,17,01,24,11.30
2015,11,17,01,25,9.60
2015,11,17,01,26,8.10
2015,11,17,01,27,8.10
2015,11,17,01,28,6.40
2015,11,17,01,29,11.30
2015,11,17,01,30,9.60
2015,11,17,01,31,9.60
2015,11,17,01,32,9.60
2015,11,17,01,33,6.40
2015,11,17,01,34,8.10
2015,11,17,01,35,9.60
2015,11,17,01,36,6.40
2015,11,17,01,37,4.80
2015,11,17,01,38,9.60
2015,11,17,01,39,11.30
2015,11,17,01,40,12.90
2015,11,17,01,41,6.40
2015,11,17,01,42,6.40
2015,11,17,01,43,6.40
2015,11,17,01,44,6.40
2015,11,17,01,45,4.80
2015,11,17,01,46,6.40
2015,11,17,01,47,6.40
2015,11,17,01,48,9.60
2015,11,17,01,49,6.40
2015,11,17,01,50,3.20
2015,11,17,01,51,6.40
2015,11,17,01,52,8.10
2015,11,17,01,53,14.50
2015,11,17,01,54,14.50
2015,11,17,01,55,6.40
2015,11,17,01,56,6.40
2015,11,17,01,57,4.80
2015,11,17,01,58,3.20
2015,11,17,01,59,4.80
2015,11,17,02,00,4.80
2015,11,17,02,01,4.80
2015,11,17,02,02,4.80
2015,11,17,02,03,3.20
2015,11,17,02,04,3.20
2015,11,17,02,05,1.60
2015,11,17,02,06,1.60
2015,11,17,02,07,3.20
2015,11,17,02,08,1.60
2015,11,17,02,09,3.20
2015,11,17,02,10,3.20
2015,11,17,02,11,3.20
2015,11,17,02,12,4.80
2015,11,17,02,13,4.80
2015,11,17,02,14,4.80
2015,11,17,02,15,3.20
2015,11,17,02,16,3.20
2015,11,17,02,17,4.80
2015,11,17,02,18,4.80
2015,11,17,02,19,6.40
2015,11,17,02,20,8.10
2015,11,17,02,21,6.40
2015,11,17,02,22,4.80
2015,11,17,02,23,6.40
2015,11,17,02,24,4.80
2015,11,17,02,25,1.60
2015,11,17,02,26,3.20
2015,11,17,02,27,6.40
2015,11,17,02,28,4.80
2015,11,17,02,29,4.80
2015,11,17,02,30,3.20
2015,11,17,02,31,1.60
2015,11,17,02,32,6.40
2015,11,17,02,33,4.80
2015,11,17,02,34,6.40
2015,11,17,02,35,3.20
2015,11,17,02,36,3.20
2015,11,17,02,37,8.10
2015,11,17,02,38,4.80
2015,11,17,02,39,6.40
2015,11,17,02,40,4.80
2015,11,17,02,41,6.40
2015,11,17,02,42,4.80
2015,11,17,02,43,3.20
2015,11,17,02,44,3.20
2015,11,17,02,45,9.60
2015,11,17,02,46,3.20
2015,11,17,02,47,6.40
2015,11,17,02,48,8.10
2015,11,17,02,49,4.80
2015,11,17,02,50,4.80
2015,11,17,02,51,4.80
2015,11,17,02,52,8.10
2015,11,17,02,53,6.40
2015,11,17,02,54,6.40
2015,11,17,02,55,9.60
2015,11,17,02,56,12.90
2015,11,17,02,57,8.10
2015,11,17,02,58,17.70
2015,11,17,02,59,8.10
2015,11,17,03,00,6.40
2015,11,17,03,01,4.80
2015,11,17,03,02,6.40
2015,11,17,03,03,8.10
2015,11,17,03,04,12.90
2015,11,17,03,05,6.40
2015,11,17,03,06,6.40
2015,11,17,03,07,6.40
2015,11,17,03,08,3.20
2015,11,17,03,09,9.60
2015,11,17,03,10,8.10
2015,11,17,03,11,6.40
2015,11,17,03,12,4.80
2015,11,17,03,13,4.80
2015,11,17,03,14,4.80
2015,11,17,03,15,9.60
2015,11,17,03,16,11.30
2015,11,17,03,17,6.40
2015,11,17,03,18,3.20
2015,11,17,03,19,4.80
2015,11,17,03,20,4.80
2015,11,17,03,21,6.40
2015,11,17,03,22,6.40
2015,11,17,03,23,4.80
2015,11,17,03,24,6.40
2015,11,17,03,25,6.40
2015,11,17,03,26,4.80
2015,11,17,03,27,8.10
2015,11,17,03,28,4.80
2015,11,17,03,29,4.80
2015,11,17,03,30,4.80
2015,11,17,03,31,3.20
2015,11,17,03,32,6.40
2015,11,17,03,33,11.30
2015,11,17,03,34,9.60
2015,11,17,03,35,8.10
2015,11,17,03,36,8.10
2015,11,17,03,37,4.80
2015,11,17,03,38,3.20
2015,11,17,03,39,6.40
2015,11,17,03,40,4.80
2015,11,17,03,41,6.40
2015,11,17,03,42,6.40
2015,11,17,03,43,8.10
2015,11,17,03,44,4.80
2015,11,17,03,45,4.80
2015,11,17,03,46,3.20
2015,11,17,03,47,3.20
2015,11,17,03,48,3.20
2015,11,17,03,49,3.20
2015,11,17,03,50,3.20
2015,11,17,03,51,1.60
2015,11,17,03,52,3.20
2015,11,17,03,53,8.10
2015,11,17,03,54,8.10
2015,11,17,03,55,4.80
2015,11,17,03,56,4.80
2015,11,17,03,57,4.80
2015,11,17,03,58,4.80
2015,11,17,03,59,3.20
2015,11,17,04,00,8.10
2015,11,17,04,01,3.20
2015,11,17,04,02,4.80
2015,11,17,04,03,4.80
2015,11,17,04,04,4.80
2015,11,17,04,05,4.80
2015,11,17,04,06,6.40
2015,11,17,04,07,6.40
2015,11,17,04,08,6.40
2015,11,17,04,09,6.40
2015,11,17,04,10,9.60
2015,11,17,04,11,6.40
2015,11,17,04,12,8.10
2015,11,17,04,13,6.40
2015,11,17,04,14,9.60
2015,11,17,04,15,11.30
2015,11,17,04,16,9.60
2015,11,17,04,17,6.40
2015,11,17,04,18,4.80
2015,11,17,04,19,6.40
2015,11,17,04,20,17.70
2015,11,17,04,21,16.10
2015,11,17,04,22,8.10
2015,11,17,04,23,11.30
2015,11,17,04,24,9.60
2015,11,17,04,25,8.10
2015,11,17,04,26,8.10
2015,11,17,04,27,4.80
2015,11,17,04,28,8.10
2015,11,17,04,29,14.50
2015,11,17,04,30,9.60
2015,11,17,04,31,11.30
2015,11,17,04,32,24.20
2015,11,17,04,33,8.10
2015,11,17,04,34,8.10
2015,11,17,04,35,4.80
2015,11,17,04,36,14.50
2015,11,17,04,37,12.90
2015,11,17,04,38,9.60
2015,11,17,04,39,4.80
2015,11,17,04,40,6.40
2015,11,17,04,41,4.80
2015,11,17,04,42,3.20
2015,11,17,04,43,6.40
2015,11,17,04,44,4.80
2015,11,17,04,45,6.40
2015,11,17,04,46,8.10
2015,11,17,04,47,4.80
2015,11,17,04,48,6.40
2015,11,17,04,49,6.40
2015,11,17,04,50,9.60
2015,11,17,04,51,6.40
2015,11,17,04,52,4.80
2015,11,17,04,53,6.40
2015,11,17,04,54,8.10
2015,11,17,04,55,3.20
2015,11,17,04,56,11.30
2015,11,17,04,57,11.30
2015,11,17,04,58,8.10
2015,11,17,04,59,8.10
2015,11,17,05,00,8.10
2015,11,17,05,01,4.80
2015,11,17,05,02,4.80
2015,11,17,05,03,4.80
2015,11,17,05,04,4.80
2015,11,17,05,05,4.80
2015,11,17,05,06,4.80
2015,11,17,05,07,6.40
2015,11,17,05,08,8.10
2015,11,17,05,09,6.40
2015,11,17,05,10,4.80
2015,11,17,05,11,4.80
2015,11,17,05,12,6.40
2015,11,17,05,13,6.40
2015,11,17,05,14,8.10
2015,11,17,05,15,14.50
2015,11,17,05,16,9.60
2015,11,17,05,17,9.60
2015,11,17,05,18,6.40
2015,11,17,05,19,4.80
2015,11,17,05,20,11.30
2015,11,17,05,21,9.60
2015,11,17,05,22,11.30
2015,11,17,05,23,11.30
2015,11,17,05,24,8.10
2015,11,17,05,25,8.10
2015,11,17,05,26,8.10
2015,11,17,05,27,6.40
2015,11,17,05,28,9.60
2015,11,17,05,29,8.10
2015,11,17,05,30,14.50
2015,11,17,05,31,6.40
2015,11,17,05,32,12.90
2015,11,17,05,33,9.60
2015,11,17,05,34,9.60
2015,11,17,05,35,9.60
2015,11,17,05,36,12.90
2015,11,17,05,37,8.10
2015,11,17,05,38,14.50
2015,11,17,05,39,17.70
2015,11,17,05,40,14.50
2015,11,17,05,41,8.10
2015,11,17,05,42,8.10
2015,11,17,05,43,16.10
2015,11,17,05,44,14.50
2015,11,17,05,45,16.10
2015,11,17,05,46,14.50
2015,11,17,05,47,9.60
2015,11,17,05,48,14.50
2015,11,17,05,49,16.10
2015,11,17,05,50,11.30
2015,11,17,05,51,16.10
2015,11,17,05,52,14.50
2015,11,17,05,53,17.70
2015,11,17,05,54,19.30
2015,11,17,05,55,16.10
2015,11,17,05,56,17.70
2015,11,17,05,57,22.50
2015,11,17,05,58,22.50
2015,11,17,05,59,20.90
2015,11,17,06,00,24.20
2015,11,17,06,01,48.30
2015,11,17,06,02,22.50
2015,11,17,06,03,33.80
2015,11,17,06,04,32.20
2015,11,17,06,05,27.40
2015,11,17,06,06,27.40
2015,11,17,06,07,40.20
2015,11,17,06,08,27.40
2015,11,17,06,09,32.20
2015,11,17,06,10,35.40
2015,11,17,06,11,30.60
2015,11,17,06,12,40.20
2015,11,17,06,13,35.40
2015,11,17,06,14,37.00
2015,11,17,06,15,43.50
2015,11,17,06,16,41.80
2015,11,17,06,17,32.20
2015,11,17,06,18,48.30
2015,11,17,06,19,33.80
2015,11,17,06,20,20.90
2015,11,17,06,21,35.40
2015,11,17,06,22,45.10
2015,11,17,06,23,37.00
2015,11,17,06,24,30.60
2015,11,17,06,25,35.40
2015,11,17,06,26,45.10
2015,11,17,06,27,51.50
2015,11,17,06,28,38.60
2015,11,17,06,29,41.80
2015,11,17,06,30,35.40
2015,11,17,06,31,29.00
2015,11,17,06,32,29.00
2015,11,17,06,33,43.50
2015,11,17,06,34,35.40
2015,11,17,06,35,22.50
2015,11,17,06,36,27.40
2015,11,17,06,37,29.00
2015,11,17,06,38,43.50
2015,11,17,06,39,33.80
2015,11,17,06,40,30.60
2015,11,17,06,41,29.00
2015,11,17,06,42,29.00
2015,11,17,06,43,32.20
2015,11,17,06,44,20.90
2015,11,17,06,45,25.70
2015,11,17,06,46,48.30
2015,11,17,06,47,37.00
2015,11,17,06,48,37.00
2015,11,17,06,49,45.10
2015,11,17,06,50,30.60
2015,11,17,06,51,41.80
2015,11,17,06,52,40.20
2015,11,17,06,53,27.40
2015,11,17,06,54,40.20
2015,11,17,06,55,33.80
2015,11,17,06,56,27.40
2015,11,17,06,57,46.70
2015,11,17,06,58,45.10
2015,11,17,06,59,33.80
2015,11,17,07,00,33.80
2015,11,17,07,01,45.10
2015,11,17,07,02,41.80
2015,11,17,07,03,40.20
2015,11,17,07,04,37.00
2015,11,17,07,05,38.60
2015,11,17,07,06,40.20
2015,11,17,07,07,35.40
2015,11,17,07,08,30.60
2015,11,17,07,09,35.40
2015,11,17,07,10,46.70
2015,11,17,07,11,49.90
2015,11,17,07,12,38.60
2015,11,17,07,13,35.40
2015,11,17,07,14,53.10
2015,11,17,07,15,43.50
2015,11,17,07,16,25.70
2015,11,17,07,17,51.50
2015,11,17,07,18,37.00
2015,11,17,07,19,30.60
2015,11,17,07,20,46.70
2015,11,17,07,21,49.90
2015,11,17,07,22,38.60
2015,11,17,07,23,38.60
2015,11,17,07,24,35.40
2015,11,17,07,25,33.80
2015,11,17,07,26,49.90
2015,11,17,07,27,43.50
2015,11,17,07,28,46.70
2015,11,17,07,29,46.70
2015,11,17,07,30,38.60
2015,11,17,07,31,45.10
2015,11,17,07,32,43.50
2015,11,17,07,33,56.30
2015,11,17,07,34,35.40
2015,11,17,07,35,40.20
2015,11,17,07,36,49.90
2015,11,17,07,37,40.20
2015,11,17,07,38,35.40
2015,11,17,07,39,45.10
2015,11,17,07,40,37.00
2015,11,17,07,41,43.50
2015,11,17,07,42,53.10
2015,11,17,07,43,48.30
2015,11,17,07,44,45.10
2015,11,17,07,45,40.20
2015,11,17,07,46,33.80
2015,11,17,07,47,41.80
2015,11,17,07,48,43.50
2015,11,17,07,49,43.50
2015,11,17,07,50,35.40
2015,11,17,07,51,40.20
2015,11,17,07,52,35.40
2015,11,17,07,53,35.40
2015,11,17,07,54,30.60
2015,11,17,07,55,32.20
2015,11,17,07,56,33.80
2015,11,17,07,57,32.20
2015,11,17,07,58,37.00
2015,11,17,07,59,38.60
2015,11,17,08,00,43.50
2015,11,17,08,01,32.20
2015,11,17,08,02,32.20
2015,11,17,08,03,35.40
2015,11,17,08,04,33.80
2015,11,17,08,05,29.00
2015,11,17,08,06,37.00
2015,11,17,08,07,29.00
2015,11,17,08,08,27.40
2015,11,17,08,09,37.00
2015,11,17,08,10,35.40
2015,11,17,08,11,43.50
2015,11,17,08,12,32.20
2015,11,17,08,13,38.60
2015,11,17,08,14,32.20
2015,11,17,08,15,24.20
2015,11,17,08,16,25.70
2015,11,17,08,17,20.90
2015,11,17,08,18,33.80
2015,11,17,08,19,32.20
2015,11,17,08,20,40.20
2015,11,17,08,21,37.00
2015,11,17,08,22,25.70
2015,11,17,08,23,33.80
2015,11,17,08,24,33.80
2015,11,17,08,25,45.10
2015,11,17,08,26,33.80
2015,11,17,08,27,35.40
2015,11,17,08,28,40.20
2015,11,17,08,29,37.00
2015,11,17,08,30,35.40
2015,11,17,08,31,25.70
2015,11,17,08,32,30.60
2015,11,17,08,33,33.80
2015,11,17,08,34,32.20
2015,11,17,08,35,27.40
2015,11,17,08,36,20.90
2015,11,17,08,37,22.50
2015,11,17,08,38,20.90
2015,11,17,08,39,24.20
2015,11,17,08,40,32.20
2015,11,17,08,41,24.20
2015,11,17,08,42,25.70
2015,11,17,08,43,32.20
2015,11,17,08,44,19.30
2015,11,17,08,45,22.50
2015,11,17,08,46,25.70
2015,11,17,08,47,16.10
2015,11,17,08,48,20.90
2015,11,17,08,49,20.90
2015,11,17,08,50,24.20
2015,11,17,08,51,19.30
2015,11,17,08,52,32.20
2015,11,17,08,53,40.20
2015,11,17,08,54,40.20
2015,11,17,08,55,37.00
2015,11,17,08,56,27.40
2015,11,17,08,57,32.20
2015,11,17,08,58,32.20
2015,11,17,08,59,35.40
2015,11,17,09,00,38.60
2015,11,17,09,01,48.30
2015,11,17,09,02,30.60
2015,11,17,09,03,53.10
2015,11,17,09,04,43.50
2015,11,17,09,05,40.20
2015,11,17,09,06,38.60
2015,11,17,09,07,35.40
2015,11,17,09,08,43.50
2015,11,17,09,09,49.90
2015,11,17,09,10,46.70
2015,11,17,09,11,51.50
2015,11,17,09,12,35.40
2015,11,17,09,13,32.20
2015,11,17,09,14,46.70
2015,11,17,09,15,40.20
2015,11,17,09,16,45.10
2015,11,17,09,17,33.80
2015,11,17,09,18,46.70
2015,11,17,09,19,43.50
2015,11,17,09,20,38.60
2015,11,17,09,21,38.60
2015,11,17,09,22,51.50
2015,11,17,09,23,40.20
2015,11,17,09,24,53.10
2015,11,17,09,25,51.50
2015,11,17,09,26,57.90
2015,11,17,09,27,48.30
2015,11,17,09,28,51.50
2015,11,17,09,29,41.80
2015,11,17,09,30,45.10
2015,11,17,09,31,49.90
2015,11,17,09,32,45.10
2015,11,17,09,33,51.50
2015,11,17,09,34,45.10
2015,11,17,09,35,56.30
2015,11,17,09,36,30.60
2015,11,17,09,37,48.30
2015,11,17,09,38,35.40
2015,11,17,09,39,37.00
2015,11,17,09,40,46.70
2015,11,17,09,41,64.40
2015,11,17,09,42,45.10
2015,11,17,09,43,38.60
2015,11,17,09,44,64.40
2015,11,17,09,45,49.90
2015,11,17,09,46,46.70
2015,11,17,09,47,49.90
2015,11,17,09,48,53.10
2015,11,17,09,49,45.10
2015,11,17,09,50,51.50
2015,11,17,09,51,45.10
2015,11,17,09,52,37.00
2015,11,17,09,53,53.10
2015,11,17,09,54,43.50
2015,11,17,09,55,51.50
2015,11,17,09,56,53.10
2015,11,17,09,57,53.10
2015,11,17,09,58,53.10
2015,11,17,09,59,54.70
2015,11,17,10,00,59.50
2015,11,17,10,01,41.80
2015,11,17,10,02,53.10
2015,11,17,10,03,45.10
2015,11,17,10,04,45.10
2015,11,17,10,05,45.10
2015,11,17,10,06,40.20
2015,11,17,10,07,32.20
2015,11,17,10,08,43.50
2015,11,17,10,09,38.60
2015,11,17,10,10,45.10
2015,11,17,10,11,49.90
2015,11,17,10,12,53.10
2015,11,17,10,13,46.70
2015,11,17,10,14,62.70
2015,11,17,10,15,43.50
2015,11,17,10,16,45.10
2015,11,17,10,17,41.80
2015,11,17,10,18,62.70
2015,11,17,10,19,43.50
2015,11,17,10,20,43.50
2015,11,17,10,21,49.90
2015,11,17,10,22,41.80
2015,11,17,10,23,43.50
2015,11,17,10,24,66.00
2015,11,17,10,25,67.60
2015,11,17,10,26,51.50
2015,11,17,10,27,37.00
2015,11,17,10,29,40.20
2015,11,17,10,30,56.30
2015,11,17,10,31,61.20
2015,11,17,10,32,46.70
2015,11,17,10,33,59.50
2015,11,17,10,34,67.60
2015,11,17,10,35,56.30
2015,11,17,10,36,46.70
2015,11,17,10,37,32.20
2015,11,17,10,38,54.70
2015,11,17,10,39,74.00
2015,11,17,10,40,49.90
2015,11,17,10,41,51.50
2015,11,17,10,42,53.10
2015,11,17,10,43,64.40
2015,11,17,10,44,56.30
2015,11,17,10,45,64.40
2015,11,17,10,46,61.20
2015,11,17,10,47,56.30
2015,11,17,10,48,72.40
2015,11,17,10,49,41.80
2015,11,17,10,50,46.70
2015,11,17,10,51,53.10
2015,11,17,10,52,57.90
2015,11,17,10,53,51.50
2015,11,17,10,54,40.20
2015,11,17,10,55,53.10
2015,11,17,10,56,46.70
2015,11,17,10,57,51.50
2015,11,17,10,58,56.30
2015,11,17,10,59,66.00
2015,11,17,11,00,54.70
2015,11,17,11,01,59.50
2015,11,17,11,02,56.30
2015,11,17,11,03,56.30
2015,11,17,11,04,56.30
2015,11,17,11,05,41.80
2015,11,17,11,06,59.50
2015,11,17,11,07,54.70
2015,11,17,11,08,64.40
2015,11,17,11,09,43.50
2015,11,17,11,10,45.10
2015,11,17,11,11,40.20
2015,11,17,11,12,49.90
2015,11,17,11,13,45.10
2015,11,17,11,14,43.50
2015,11,17,11,15,56.30
2015,11,17,11,16,56.30
2015,11,17,11,17,48.30
2015,11,17,11,18,59.50
2015,11,17,11,19,43.50
2015,11,17,11,20,53.10
2015,11,17,11,21,45.10
2015,11,17,11,22,49.90
2015,11,17,11,23,53.10
2015,11,17,11,24,53.10
2015,11,17,11,25,67.60
2015,11,17,11,26,54.70
2015,11,17,11,27,51.50
2015,11,17,11,28,54.70
2015,11,17,11,29,41.80
2015,11,17,11,30,51.50
2015,11,17,11,31,56.30
2015,11,17,11,32,57.90
2015,11,17,11,33,66.00
2015,11,17,11,34,61.20
2015,11,17,11,35,57.90
2015,11,17,11,36,57.90
2015,11,17,11,37,53.10
2015,11,17,11,38,41.80
2015,11,17,11,39,43.50
2015,11,17,11,40,64.40
2015,11,17,11,41,59.50
2015,11,17,11,42,51.50
2015,11,17,11,43,62.70
2015,11,17,11,44,62.70
2015,11,17,11,45,61.20
2015,11,17,11,46,53.10
2015,11,17,11,47,56.30
2015,11,17,11,48,53.10
2015,11,17,11,49,51.50
2015,11,17,11,50,51.50
2015,11,17,11,51,40.20
2015,11,17,11,52,57.90
2015,11,17,11,53,51.50
2015,11,17,11,54,67.60
2015,11,17,11,55,51.50
2015,11,17,11,56,56.30
2015,11,17,11,57,56.30
2015,11,17,11,58,40.20
2015,11,17,11,59,29.00
2015,11,17,12,00,37.00
2015,11,17,12,01,51.50
2015,11,17,12,02,27.40
2015,11,17,12,03,41.80
2015,11,17,12,04,40.20
2015,11,17,12,05,35.40
2015,11,17,12,06,54.70
2015,11,17,12,07,48.30
2015,11,17,12,08,51.50
2015,11,17,12,09,33.80
2015,11,17,12,10,27.40
2015,11,17,12,11,40.20
2015,11,17,12,12,24.20
2015,11,17,12,13,49.90
2015,11,17,12,14,37.00
2015,11,17,12,15,53.10
2015,11,17,12,16,37.00
2015,11,17,12,17,38.60
2015,11,17,12,18,29.00
2015,11,17,12,19,48.30
2015,11,17,12,20,43.50
2015,11,17,12,21,49.90
2015,11,17,12,22,46.70
2015,11,17,12,23,51.50
2015,11,17,12,24,35.40
2015,11,17,12,25,40.20
2015,11,17,12,26,33.80
2015,11,17,12,27,19.30
2015,11,17,12,28,41.80
2015,11,17,12,29,45.10
2015,11,17,12,30,33.80
2015,11,17,12,31,49.90
2015,11,17,12,32,40.20
2015,11,17,12,33,40.20
2015,11,17,12,34,41.80
2015,11,17,12,35,37.00
2015,11,17,12,36,45.10
2015,11,17,12,37,29.00
2015,11,17,12,38,33.80
2015,11,17,12,39,38.60
2015,11,17,12,40,43.50
2015,11,17,12,41,41.80
2015,11,17,12,42,30.60
2015,11,17,12,43,41.80
2015,11,17,12,44,30.60
2015,11,17,12,45,27.40
2015,11,17,12,46,41.80
2015,11,17,12,47,30.60
2015,11,17,12,48,41.80
2015,11,17,12,49,38.60
2015,11,17,12,50,24.20
2015,11,17,12,51,32.20
2015,11,17,12,52,24.20
2015,11,17,12,53,37.00
2015,11,17,12,54,35.40
2015,11,17,12,55,32.20
2015,11,17,12,56,40.20
2015,11,17,12,57,30.60
2015,11,17,12,58,35.40
2015,11,17,12,59,35.40
2015,11,17,13,00,41.80
2015,11,17,13,01,33.80
2015,11,17,13,02,24.20
2015,11,17,13,03,20.90
2015,11,17,13,04,45.10
2015,11,17,13,05,35.40
2015,11,17,13,06,32.20
2015,11,17,13,07,33.80
2015,11,17,13,08,43.50
2015,11,17,13,09,27.40
2015,11,17,13,10,32.20
2015,11,17,13,11,35.40
2015,11,17,13,12,38.60
2015,11,17,13,13,37.00
2015,11,17,13,14,24.20
2015,11,17,13,15,25.70
2015,11,17,13,16,25.70
2015,11,17,13,17,41.80
2015,11,17,13,18,41.80
2015,11,17,13,19,53.10
2015,11,17,13,20,43.50
2015,11,17,13,21,45.10
2015,11,17,13,22,43.50
2015,11,17,13,23,35.40
2015,11,17,13,24,29.00
2015,11,17,13,25,32.20
2015,11,17,13,26,33.80
2015,11,17,13,27,33.80
2015,11,17,13,28,30.60
2015,11,17,13,29,37.00
2015,11,17,13,30,22.50
2015,11,17,13,31,35.40
2015,11,17,13,32,41.80
2015,11,17,13,33,35.40
2015,11,17,13,34,45.10
2015,11,17,13,35,49.90
2015,11,17,13,36,51.50
2015,11,17,13,37,53.10
2015,11,17,13,38,35.40
2015,11,17,13,39,33.80
2015,11,17,13,40,25.70
2015,11,17,13,41,30.60
2015,11,17,13,42,37.00
2015,11,17,13,43,35.40
2015,11,17,13,44,35.40
2015,11,17,13,45,32.20
2015,11,17,13,46,43.50
2015,11,17,13,47,49.90
2015,11,17,13,48,38.60
2015,11,17,13,49,29.00
2015,11,17,13,50,45.10
2015,11,17,13,51,43.50
2015,11,17,13,52,35.40
2015,11,17,13,53,45.10
2015,11,17,13,54,53.10
2015,11,17,13,55,35.40
2015,11,17,13,56,30.60
2015,11,17,13,57,33.80
2015,11,17,13,58,46.70
2015,11,17,13,59,43.50
2015,11,17,14,00,33.80
2015,11,17,14,01,35.40
2015,11,17,14,02,40.20
2015,11,17,14,03,48.30
2015,11,17,14,04,35.40
2015,11,17,14,05,46.70
2015,11,17,14,06,41.80
2015,11,17,14,07,33.80
2015,11,17,14,08,53.10
2015,11,17,14,09,38.60
2015,11,17,14,10,30.60
2015,11,17,14,11,43.50
2015,11,17,14,12,35.40
2015,11,17,14,13,56.30
2015,11,17,14,14,54.70
2015,11,17,14,15,40.20
2015,11,17,14,16,37.00
2015,11,17,14,17,37.00
2015,11,17,14,18,35.40
2015,11,17,14,19,40.20
2015,11,17,14,20,37.00
2015,11,17,14,21,37.00
2015,11,17,14,22,43.50
2015,11,17,14,23,38.60
2015,11,17,14,24,35.40
2015,11,17,14,25,30.60
2015,11,17,14,26,29.00
2015,11,17,14,27,53.10
2015,11,17,14,28,35.40
2015,11,17,14,29,37.00
2015,11,17,14,30,49.90
2015,11,17,14,31,45.10
2015,11,17,14,32,29.00
2015,11,17,14,33,53.10
2015,11,17,14,34,48.30
2015,11,17,14,35,32.20
2015,11,17,14,36,41.80
2015,11,17,14,37,48.30
2015,11,17,14,38,30.60
2015,11,17,14,39,35.40
2015,11,17,14,40,24.20
2015,11,17,14,41,30.60
2015,11,17,14,42,32.20
2015,11,17,14,43,33.80
2015,11,17,14,44,40.20
2015,11,17,14,45,37.00
2015,11,17,14,46,22.50
2015,11,17,14,47,43.50
2015,11,17,14,48,33.80
2015,11,17,14,49,37.00
2015,11,17,14,50,30.60
2015,11,17,14,51,32.20
2015,11,17,14,52,24.20
2015,11,17,14,53,25.70
2015,11,17,14,54,24.20
2015,11,17,14,55,33.80
2015,11,17,14,56,24.20
2015,11,17,14,57,33.80
2015,11,17,14,58,30.60
2015,11,17,14,59,32.20
2015,11,17,15,00,22.50
2015,11,17,15,01,27.40
2015,11,17,15,02,17.70
2015,11,17,15,03,25.70
2015,11,17,15,04,17.70
2015,11,17,15,05,19.30
2015,11,17,15,06,25.70
2015,11,17,15,07,20.90
2015,11,17,15,08,25.70
2015,11,17,15,09,20.90
2015,11,17,15,10,20.90
2015,11,17,15,11,24.20
2015,11,17,15,12,33.80
2015,11,17,15,13,19.30
2015,11,17,15,14,33.80
2015,11,17,15,15,17.70
2015,11,17,15,16,14.50
2015,11,17,15,17,19.30
2015,11,17,15,18,25.70
2015,11,17,15,19,29.00
2015,11,17,15,20,38.60
2015,11,17,15,21,27.40
2015,11,17,15,22,24.20
2015,11,17,15,23,19.30
2015,11,17,15,24,17.70
2015,11,17,15,25,30.60
2015,11,17,15,26,29.00
2015,11,17,15,27,37.00
2015,11,17,15,28,30.60
2015,11,17,15,29,20.90
2015,11,17,15,30,25.70
2015,11,17,15,31,22.50
2015,11,17,15,32,20.90
2015,11,17,15,33,19.30
2015,11,17,15,34,16.10
2015,11,17,15,35,19.30
2015,11,17,15,36,12.90
2015,11,17,15,37,19.30
2015,11,17,15,38,25.70
2015,11,17,15,39,19.30
2015,11,17,15,40,16.10
2015,11,17,15,41,19.30
2015,11,17,15,42,16.10
2015,11,17,15,43,17.70
2015,11,17,15,44,20.90
2015,11,17,15,45,20.90
2015,11,17,15,46,19.30
2015,11,17,15,47,17.70
2015,11,17,15,48,17.70
2015,11,17,15,49,17.70
2015,11,17,15,50,20.90
2015,11,17,15,51,16.10
2015,11,17,15,52,17.70
2015,11,17,15,53,16.10
2015,11,17,15,54,11.30
2015,11,17,15,55,17.70
2015,11,17,15,56,14.50
2015,11,17,15,57,11.30
2015,11,17,15,58,16.10
2015,11,17,15,59,24.20
2015,11,17,16,00,16.10
2015,11,17,16,01,14.50
2015,11,17,16,02,14.50
2015,11,17,16,03,22.50
2015,11,17,16,04,20.90
2015,11,17,16,05,16.10
2015,11,17,16,06,19.30
2015,11,17,16,07,22.50
2015,11,17,16,08,25.70
2015,11,17,16,09,19.30
2015,11,17,16,10,16.10
2015,11,17,16,11,24.20
2015,11,17,16,12,17.70
2015,11,17,16,13,17.70
2015,11,17,16,14,19.30
2015,11,17,16,15,17.70
2015,11,17,16,16,17.70
2015,11,17,16,17,20.90
2015,11,17,16,18,24.20
2015,11,17,16,19,35.40
2015,11,17,16,20,27.40
2015,11,17,16,21,25.70
2015,11,17,16,22,27.40
2015,11,17,16,23,30.60
2015,11,17,16,24,20.90
2015,11,17,16,25,24.20
2015,11,17,16,26,43.50
2015,11,17,16,27,29.00
2015,11,17,16,28,22.50
2015,11,17,16,29,20.90
2015,11,17,16,30,19.30
2015,11,17,16,31,25.70
2015,11,17,16,32,20.90
2015,11,17,16,33,20.90
2015,11,17,16,34,33.80
2015,11,17,16,35,25.70
2015,11,17,16,36,22.50
2015,11,17,16,37,22.50
2015,11,17,16,38,16.10
2015,11,17,16,39,22.50
2015,11,17,16,40,20.90
2015,11,17,16,41,32.20
2015,11,17,16,42,33.80
2015,11,17,16,43,30.60
2015,11,17,16,44,14.50
2015,11,17,16,45,19.30
2015,11,17,16,46,33.80
2015,11,17,16,47,16.10
2015,11,17,16,48,33.80
2015,11,17,16,49,29.00
2015,11,17,16,50,24.20
2015,11,17,16,51,22.50
2015,11,17,16,52,24.20
2015,11,17,16,53,19.30
2015,11,17,16,54,14.50
2015,11,17,16,55,20.90
2015,11,17,16,56,17.70
2015,11,17,16,57,20.90
2015,11,17,16,58,30.60
2015,11,17,16,59,27.40
2015,11,17,17,00,35.40
2015,11,17,17,01,22.50
2015,11,17,17,02,25.70
2015,11,17,17,03,30.60
2015,11,17,17,04,24.20
2015,11,17,17,05,29.00
2015,11,17,17,06,32.20
2015,11,17,17,07,22.50
2015,11,17,17,08,20.90
2015,11,17,17,09,20.90
2015,11,17,17,10,16.10
2015,11,17,17,11,19.30
2015,11,17,17,12,16.10
2015,11,17,17,13,25.70
2015,11,17,17,14,17.70
2015,11,17,17,15,17.70
2015,11,17,17,16,22.50
2015,11,17,17,17,19.30
2015,11,17,17,18,16.10
2015,11,17,17,19,19.30
2015,11,17,17,20,19.30
2015,11,17,17,21,12.90
2015,11,17,17,22,9.60
2015,11,17,17,23,9.60
2015,11,17,17,24,14.50
2015,11,17,17,25,12.90
2015,11,17,17,26,12.90
2015,11,17,17,27,16.10
2015,11,17,17,28,16.10
2015,11,17,17,29,24.20
2015,11,17,17,30,24.20